Fort Meade, MD

7:50 AM EDT on August 25, 2016 (GMT -0400)
Tipton

Weather History for KFME - October, 2012

Change the Weather History Date:

Tuesday, October 9, 2012

  Actual Average (KBWI) Record (KBWI)
Temperature  
Mean Temperature 52 °F 58 °F  
Max Temperature 59 °F 69 °F 94 °F (2007)
Min Temperature 44 °F 48 °F 28 °F (2001)
Degree Days  
Heating Degree Days 14 8  
Month to date heating degree days 57  
Since 1 July heating degree days 110  
Cooling Degree Days 0 1  
Month to date cooling degree days 10  
Year to date cooling degree days 1155  
Growing Degree Days 2 (Base 50)    
Moisture  
Dew Point 47 °F    
Average Humidity 82    
Maximum Humidity 94    
Minimum Humidity 67    
Precipitation  
Precipitation 0.00 in 0.11 in 1.94 in (1992)
Month to date precipitation 1.02  
Year to date precipitation 32.90  
Snow  
Snow 0.00 in 0.00 in T in (1895)
Month to date snowfall 0.0  
Since 1 July snowfall 0.0  
Snow Depth -    
Sea Level Pressure  
Sea Level Pressure 30.17 in    
Wind  
Wind Speed 3 mph (NNE)    
Max Wind Speed 7 mph    
Max Gust Speed -    
Visibility 8 miles    
Events      
T = Trace of Precipitation, MM = Missing Value Source: NWS Daily Summary

Daily Weather History Graph

Daily Weather History Graph

Search for Another Location

Airport or City:

Trip Planner

Search our weather history database for the weather conditions in past years. The results will help you decide how hot, cold, wet, or windy it might be!

Date:

Astronomy

Oct. 09, 2012 Rise Set
Actual Time 7:11 AM EDT 6:36 PM EDT
Civil Twilight 6:44 AM EDT 7:03 PM EDT
Nautical Twilight 6:13 AM EDT 7:34 PM EDT
Astronomical Twilight 5:42 AM EDT 8:05 PM EDT
Moon 12:48 AM EDT (10/9) 3:00 PM EDT (10/9)
Length of Visible Light 12h 18m
Length of Day
11h 25m
Last Quarter, 37% of the Moon is Illuminated
Oct 9
Last Quarter
Oct 15
New
Oct 21
First Quarter
Oct 29
Full
Nov 6
Last Quarter

Hourly Weather History & Observations

Time (EDT) Temp. Windchill Dew Point Humidity Pressure Visibility Wind Dir Wind Speed Gust Speed Precip Events Conditions
12:09 AM 48.2 °F - 42.8 °F 82% 30.22 in 10.0 mi North 3.5 mph - N/A   Overcast
12:51 AM 46.4 °F 45.2 °F 41.0 °F 81% 30.23 in 10.0 mi North 3.5 mph - N/A   Overcast
1:12 AM 46.4 °F 45.2 °F 41.0 °F 81% 30.22 in 10.0 mi North 3.5 mph - N/A   Overcast
1:33 AM 46.4 °F 44.3 °F 41.0 °F 81% 30.23 in 10.0 mi NNW 4.6 mph - N/A   Overcast
1:54 AM 46.4 °F 45.2 °F 41.0 °F 81% 30.22 in 7.0 mi NNW 3.5 mph - N/A   Scattered Clouds
2:15 AM 46.4 °F 45.2 °F 42.8 °F 87% 30.22 in 10.0 mi NNW 3.5 mph - N/A   Scattered Clouds
2:36 AM 44.6 °F 43.1 °F 42.8 °F 93% 30.22 in 7.0 mi NNW 3.5 mph - N/A   Clear
2:57 AM 44.6 °F 43.1 °F 42.8 °F 93% 30.21 in 7.0 mi North 3.5 mph - N/A   Clear
3:21 AM 44.6 °F - 42.8 °F 93% 30.21 in 7.0 mi Calm Calm - N/A   Clear
4:03 AM 44.6 °F 42.2 °F 42.8 °F 93% 30.20 in 5.0 mi North 4.6 mph - N/A   Clear
4:24 AM 44.6 °F - 42.8 °F 93% 30.20 in 7.0 mi Calm Calm - N/A   Clear
4:45 AM 44.6 °F 43.1 °F 42.8 °F 93% 30.21 in 4.0 mi WNW 3.5 mph - N/A   Scattered Clouds
5:27 AM 44.6 °F - 42.8 °F 93% 30.21 in 5.0 mi Calm Calm - N/A   Mostly Cloudy
5:48 AM 44.6 °F - 42.8 °F 93% 30.21 in 7.0 mi Calm Calm - N/A   Scattered Clouds
6:09 AM 46.4 °F 44.3 °F 42.8 °F 87% 30.21 in 10.0 mi NNW 4.6 mph - N/A   Mostly Cloudy
6:54 AM 46.4 °F 45.2 °F 42.8 °F 87% 30.20 in 10.0 mi NNE 3.5 mph - N/A   Overcast
7:15 AM 46.4 °F 45.2 °F 44.6 °F 93% 30.21 in 7.0 mi North 3.5 mph - N/A   Overcast
7:36 AM 46.4 °F - 44.6 °F 93% 30.21 in 7.0 mi Calm Calm - N/A   Overcast
7:57 AM 46.4 °F 44.3 °F 44.6 °F 93% 30.20 in 7.0 mi North 4.6 mph - N/A   Overcast
8:18 AM 46.4 °F 45.2 °F 44.6 °F 93% 30.20 in 7.0 mi North 3.5 mph - N/A   Overcast
8:39 AM 50.0 °F - 44.6 °F 82% 30.21 in 7.0 mi Calm Calm - N/A   Mostly Cloudy
9:00 AM 50.0 °F - 44.6 °F 82% 30.22 in 7.0 mi North 3.5 mph - N/A   Overcast
9:21 AM 50.0 °F - 46.4 °F 87% 30.21 in 7.0 mi North 4.6 mph - N/A   Overcast
9:42 AM 50.0 °F - 46.4 °F 87% 30.21 in 10.0 mi NNE 5.8 mph - N/A   Overcast
10:03 AM 51.8 °F - 46.4 °F 82% 30.22 in 10.0 mi NNE 3.5 mph - N/A   Overcast
10:24 AM 51.8 °F - 46.4 °F 82% 30.21 in 10.0 mi NE 4.6 mph - N/A   Overcast
10:45 AM 53.6 °F - 48.2 °F 82% 30.21 in 10.0 mi North 6.9 mph - N/A   Overcast
11:09 AM 53.6 °F - 46.4 °F 77% 30.20 in 10.0 mi ENE 5.8 mph - N/A   Overcast
11:30 AM 55.4 °F - 48.2 °F 77% 30.19 in 10.0 mi North 5.8 mph - N/A   Overcast
11:51 AM 55.4 °F - 46.4 °F 72% 30.19 in 10.0 mi NNE 6.9 mph - N/A   Overcast
12:12 PM 57.2 °F - 48.2 °F 72% 30.19 in 10.0 mi NE 5.8 mph - N/A   Overcast
12:33 PM 57.2 °F - 48.2 °F 72% 30.18 in 10.0 mi NE 4.6 mph - N/A   Overcast
12:54 PM 55.4 °F - 48.2 °F 77% 30.17 in 10.0 mi North 5.8 mph - N/A   Overcast
1:15 PM 57.2 °F - 48.2 °F 72% 30.16 in 10.0 mi ENE 3.5 mph - N/A   Overcast
1:36 PM 57.2 °F - 48.2 °F 72% 30.15 in 10.0 mi NNE 3.5 mph - N/A   Overcast
1:57 PM 59.0 °F - 48.2 °F 67% 30.15 in 10.0 mi ENE 4.6 mph - N/A   Overcast
2:18 PM 59.0 °F - 48.2 °F 67% 30.15 in 10.0 mi NE 3.5 mph - N/A   Overcast
2:39 PM 59.0 °F - 48.2 °F 67% 30.14 in 10.0 mi NNW 3.5 mph - N/A   Overcast
3:03 PM 59.0 °F - 50.0 °F 72% 30.13 in 10.0 mi North 3.5 mph - N/A   Overcast
3:24 PM 59.0 °F - 50.0 °F 72% 30.13 in 10.0 mi NE 4.6 mph - N/A   Overcast
3:45 PM 59.0 °F - 50.0 °F 72% 30.12 in 10.0 mi North 4.6 mph - N/A   Overcast
4:06 PM 59.0 °F - 50.0 °F 72% 30.13 in 10.0 mi NNE 4.6 mph - N/A   Overcast
4:27 PM 59.0 °F - 50.0 °F 72% 30.12 in 10.0 mi NNE 4.6 mph - N/A   Overcast
4:48 PM 59.0 °F - 50.0 °F 72% 30.12 in 10.0 mi North 3.5 mph - N/A   Overcast
5:30 PM 59.0 °F - 50.0 °F 72% 30.12 in 10.0 mi North 4.6 mph - N/A   Overcast
5:51 PM 59.0 °F - 50.0 °F 72% 30.12 in 10.0 mi North 5.8 mph - N/A   Overcast
6:12 PM 59.0 °F - 50.0 °F 72% 30.12 in 10.0 mi North 3.5 mph - N/A   Overcast
6:54 PM 57.2 °F - 50.0 °F 77% 30.12 in 5.0 mi NE 3.5 mph - N/A   Overcast
7:18 PM 55.4 °F - 50.0 °F 82% 30.11 in 5.0 mi East 3.5 mph - N/A   Overcast
7:39 PM 55.4 °F - 50.0 °F 82% 30.12 in 4.0 mi Calm Calm - N/A   Overcast
8:00 PM 55.4 °F - 50.0 °F 82% 30.11 in 10.0 mi North 4.6 mph - N/A   Overcast
8:21 PM 55.4 °F - 50.0 °F 82% 30.11 in 10.0 mi North 3.5 mph - N/A   Overcast
8:42 PM 55.4 °F - 50.0 °F 82% 30.12 in 10.0 mi Calm Calm - N/A   Overcast
9:03 PM 55.4 °F - 50.0 °F 82% 30.11 in 7.0 mi Calm Calm - N/A   Overcast
9:45 PM 55.4 °F - 51.8 °F 88% 30.11 in 5.0 mi ENE 3.5 mph - N/A   Overcast
10:06 PM 55.4 °F - 51.8 °F 88% 30.11 in 5.0 mi Calm Calm - N/A   Overcast
10:27 PM 55.4 °F - 51.8 °F 88% 30.11 in 7.0 mi Calm Calm - N/A   Overcast
10:48 PM 55.4 °F - 51.8 °F 88% 30.10 in 7.0 mi NNE 3.5 mph - N/A   Overcast
11:12 PM 55.4 °F - 51.8 °F 88% 30.10 in 7.0 mi NE 3.5 mph - N/A   Overcast
11:54 PM 53.6 °F - 51.8 °F 94% 30.09 in 5.0 mi Calm Calm - N/A   Overcast